Time,TemperatureF,DewpointF,PressureIn,WindDirection,WindDirectionDegrees,WindSpeedMPH,WindSpeedGustMPH,Humidity,HourlyPrecipIn,Conditions,Clouds,dailyrainin,SoftwareType,DateUTC
2013-08-21 00:04:00,63.3,62.0,30.02,South,187,0.0,-999.0,96,-99.99,,,0.00,weatherlink.com 1.10,2013-08-21 04:04:00,
2013-08-21 00:19:00,63.1,62.0,30.02,South,187,0.0,-999.0,97,-99.99,,,0.00,weatherlink.com 1.10,2013-08-21 04:19:00,
2013-08-21 00:34:00,62.8,62.0,30.02,South,187,0.0,-999.0,97,-99.99,,,0.00,weatherlink.com 1.10,2013-08-21 04:34:00,
2013-08-21 00:49:00,62.5,62.0,30.02,South,187,0.0,-999.0,97,-99.99,,,0.00,weatherlink.com 1.10,2013-08-21 04:49:00,
2013-08-21 01:04:00,62.2,61.0,30.03,South,187,0.0,-999.0,97,-99.99,,,0.00,weatherlink.com 1.10,2013-08-21 05:04:00,
2013-08-21 01:19:00,62.0,61.0,30.02,South,187,0.0,-999.0,97,-99.99,,,0.00,weatherlink.com 1.10,2013-08-21 05:19:00,
2013-08-21 01:34:00,61.8,61.0,30.02,South,187,0.0,-999.0,97,-99.99,,,0.00,weatherlink.com 1.10,2013-08-21 05:34:00,
2013-08-21 01:49:00,61.5,61.0,30.02,South,187,0.0,-999.0,97,-99.99,,,0.00,weatherlink.com 1.10,2013-08-21 05:49:00,
2013-08-21 02:04:00,61.3,61.0,30.03,South,187,0.0,-999.0,97,-99.99,,,0.00,weatherlink.com 1.10,2013-08-21 06:04:00,
2013-08-21 02:19:00,61.2,60.0,30.03,South,187,0.0,-999.0,97,-99.99,,,0.00,weatherlink.com 1.10,2013-08-21 06:19:00,
2013-08-21 02:34:00,61.0,61.0,30.03,South,187,0.0,-999.0,98,-99.99,,,0.00,weatherlink.com 1.10,2013-08-21 06:34:00,
2013-08-21 02:49:00,60.9,60.0,30.03,South,187,0.0,-999.0,98,-99.99,,,0.00,weatherlink.com 1.10,2013-08-21 06:49:00,
2013-08-21 03:04:00,60.8,60.0,30.03,South,187,0.0,-999.0,98,-99.99,,,0.00,weatherlink.com 1.10,2013-08-21 07:04:00,
2013-08-21 03:19:00,60.6,60.0,30.03,South,187,0.0,-999.0,98,-99.99,,,0.00,weatherlink.com 1.10,2013-08-21 07:19:00,
2013-08-21 03:34:00,60.3,60.0,30.03,South,187,0.0,-999.0,98,-99.99,,,0.00,weatherlink.com 1.10,2013-08-21 07:34:00,
2013-08-21 03:49:00,60.2,60.0,30.03,South,187,0.0,-999.0,98,-99.99,,,0.00,weatherlink.com 1.10,2013-08-21 07:49:00,
2013-08-21 04:04:00,60.1,60.0,30.03,South,187,0.0,-999.0,98,-99.99,,,0.00,weatherlink.com 1.10,2013-08-21 08:04:00,
2013-08-21 04:19:00,60.0,60.0,30.03,South,187,0.0,-999.0,98,-99.99,,,0.00,weatherlink.com 1.10,2013-08-21 08:19:00,
2013-08-21 04:34:00,59.8,59.0,30.04,South,187,0.0,-999.0,98,-99.99,,,0.00,weatherlink.com 1.10,2013-08-21 08:34:00,
2013-08-21 04:49:00,59.8,59.0,30.04,South,187,0.0,-999.0,98,-99.99,,,0.00,weatherlink.com 1.10,2013-08-21 08:49:00,
2013-08-21 05:04:00,59.8,59.0,30.04,South,187,0.0,-999.0,98,-99.99,,,0.00,weatherlink.com 1.10,2013-08-21 09:04:00,
2013-08-21 05:19:00,59.6,59.0,30.04,South,187,0.0,-999.0,98,-99.99,,,0.00,weatherlink.com 1.10,2013-08-21 09:19:00,
2013-08-21 05:34:00,59.5,59.0,30.04,South,187,0.0,-999.0,98,-99.99,,,0.00,weatherlink.com 1.10,2013-08-21 09:34:00,
2013-08-21 05:49:00,59.4,59.0,30.05,South,187,0.0,-999.0,98,-99.99,,,0.00,weatherlink.com 1.10,2013-08-21 09:49:00,
2013-08-21 06:04:00,59.3,59.0,30.05,South,187,0.0,-999.0,98,-99.99,,,0.00,weatherlink.com 1.10,2013-08-21 10:04:00,
2013-08-21 06:19:00,59.4,59.0,30.05,South,187,0.0,-999.0,98,-99.99,,,0.00,weatherlink.com 1.10,2013-08-21 10:19:00,
2013-08-21 06:34:00,59.6,59.0,30.05,South,187,0.0,-999.0,98,-99.99,,,0.00,weatherlink.com 1.10,2013-08-21 10:34:00,
2013-08-21 06:49:00,59.7,59.0,30.06,South,187,0.0,-999.0,98,-99.99,,,0.00,weatherlink.com 1.10,2013-08-21 10:49:00,
2013-08-21 07:04:00,60.3,60.0,30.06,South,187,0.0,-999.0,99,-99.99,,,0.00,weatherlink.com 1.10,2013-08-21 11:04:00,
2013-08-21 07:19:00,61.4,61.0,30.06,South,187,0.0,-999.0,99,-99.99,,,0.00,weatherlink.com 1.10,2013-08-21 11:19:00,
2013-08-21 07:34:00,62.4,62.0,30.07,South,187,0.0,-999.0,99,-99.99,,,0.00,weatherlink.com 1.10,2013-08-21 11:34:00,
2013-08-21 07:49:00,63.9,64.0,30.07,South,187,0.0,-999.0,100,-99.99,,,0.00,weatherlink.com 1.10,2013-08-21 11:49:00,
2013-08-21 08:04:00,65.4,65.0,30.07,WSW,242,2.0,-999.0,100,-99.99,,,0.00,weatherlink.com 1.10,2013-08-21 12:04:00,
2013-08-21 08:19:00,66.2,66.0,30.07,WSW,248,1.0,-999.0,100,-99.99,,,0.00,weatherlink.com 1.10,2013-08-21 12:19:00,
2013-08-21 08:34:00,67.4,67.0,30.07,West,281,3.0,-999.0,99,-99.99,,,0.00,weatherlink.com 1.10,2013-08-21 12:34:00,
2013-08-21 08:49:00,69.3,68.0,30.07,West,259,3.0,-999.0,94,-99.99,,,0.00,weatherlink.com 1.10,2013-08-21 12:49:00,
2013-08-21 09:04:00,71.1,68.0,30.07,WSW,243,0.0,-999.0,89,-99.99,,,0.00,weatherlink.com 1.10,2013-08-21 13:04:00,
2013-08-21 09:19:00,72.4,68.0,30.07,WSW,239,3.0,-999.0,85,-99.99,,,0.00,weatherlink.com 1.10,2013-08-21 13:19:00,
2013-08-21 09:34:00,73.6,68.0,30.07,West,280,0.0,-999.0,83,-99.99,,,0.00,weatherlink.com 1.10,2013-08-21 13:34:00,
2013-08-21 09:49:00,75.0,68.0,30.07,West,264,4.0,-999.0,80,-99.99,,,0.00,weatherlink.com 1.10,2013-08-21 13:49:00,
2013-08-21 10:04:00,76.7,69.0,30.07,West,280,0.0,-999.0,78,-99.99,,,0.00,weatherlink.com 1.10,2013-08-21 14:04:00,
2013-08-21 10:19:00,77.7,70.0,30.06,WSW,239,0.0,-999.0,78,-99.99,,,0.00,weatherlink.com 1.10,2013-08-21 14:19:00,
2013-08-21 10:34:00,78.9,69.0,30.06,WSW,248,0.0,-999.0,72,-99.99,,,0.00,weatherlink.com 1.10,2013-08-21 14:34:00,
2013-08-21 10:49:00,79.8,70.0,30.06,West,265,0.0,-999.0,72,-99.99,,,0.00,weatherlink.com 1.10,2013-08-21 14:49:00,
2013-08-21 11:04:00,80.9,71.0,30.05,SW,229,3.0,-999.0,71,-99.99,,,0.00,weatherlink.com 1.10,2013-08-21 15:04:00,
2013-08-21 11:19:00,81.9,70.0,30.05,SW,236,4.0,-999.0,67,-99.99,,,0.00,weatherlink.com 1.10,2013-08-21 15:19:00,
2013-08-21 11:34:00,82.6,71.0,30.05,SW,234,1.0,-999.0,67,-99.99,,,0.00,weatherlink.com 1.10,2013-08-21 15:34:00,
2013-08-21 11:49:00,83.3,72.0,30.05,SSW,208,0.0,-999.0,68,-99.99,,,0.00,weatherlink.com 1.10,2013-08-21 15:49:00,
2013-08-21 12:04:00,83.9,72.0,30.05,SSW,211,0.0,-999.0,67,-99.99,,,0.00,weatherlink.com 1.10,2013-08-21 16:04:00,
2013-08-21 12:19:00,84.6,71.0,30.04,WSW,257,3.0,-999.0,63,-99.99,,,0.00,weatherlink.com 1.10,2013-08-21 16:19:00,
2013-08-21 12:34:00,85.3,71.0,30.04,SSE,156,4.0,-999.0,62,-99.99,,,0.00,weatherlink.com 1.10,2013-08-21 16:34:00,
2013-08-21 12:49:00,85.6,71.0,30.04,SW,234,2.0,-999.0,61,-99.99,,,0.00,weatherlink.com 1.10,2013-08-21 16:49:00,
2013-08-21 13:04:00,86.5,70.0,30.03,WNW,283,0.0,-999.0,59,-99.99,,,0.00,weatherlink.com 1.10,2013-08-21 17:04:00,
2013-08-21 13:19:00,87.1,69.0,30.03,SW,231,5.0,-999.0,56,-99.99,,,0.00,weatherlink.com 1.10,2013-08-21 17:19:00,
2013-08-21 13:34:00,87.7,69.0,30.02,SSW,207,4.0,-999.0,54,-99.99,,,0.00,weatherlink.com 1.10,2013-08-21 17:34:00,
2013-08-21 13:49:00,88.4,69.0,30.02,SW,234,7.0,-999.0,53,-99.99,,,0.00,weatherlink.com 1.10,2013-08-21 17:49:00,
2013-08-21 14:04:00,88.9,69.0,30.01,SSW,211,0.0,-999.0,52,-99.99,,,0.00,weatherlink.com 1.10,2013-08-21 18:04:00,
2013-08-21 14:19:00,89.2,70.0,30.01,West,268,0.0,-999.0,54,-99.99,,,0.00,weatherlink.com 1.10,2013-08-21 18:19:00,
2013-08-21 14:34:00,89.2,69.0,30.00,WSW,246,9.0,-999.0,51,-99.99,,,0.00,weatherlink.com 1.10,2013-08-21 18:34:00,
2013-08-21 14:49:00,89.3,68.0,30.00,West,261,0.0,-999.0,50,-99.99,,,0.00,weatherlink.com 1.10,2013-08-21 18:49:00,
2013-08-21 15:04:00,89.5,71.0,30.00,SW,224,2.0,-999.0,54,-99.99,,,0.00,weatherlink.com 1.10,2013-08-21 19:04:00,
2013-08-21 15:19:00,90.3,70.0,30.00,SW,226,5.0,-999.0,51,-99.99,,,0.00,weatherlink.com 1.10,2013-08-21 19:19:00,
2013-08-21 15:34:00,90.4,70.0,29.99,SW,215,5.0,-999.0,52,-99.99,,,0.00,weatherlink.com 1.10,2013-08-21 19:34:00,
2013-08-21 15:49:00,90.5,70.0,29.99,WSW,242,1.0,-999.0,51,-99.99,,,0.00,weatherlink.com 1.10,2013-08-21 19:49:00,
2013-08-21 16:04:00,90.2,71.0,29.98,SW,233,4.0,-999.0,54,-99.99,,,0.00,weatherlink.com 1.10,2013-08-21 20:04:00,
2013-08-21 16:19:00,90.2,70.0,29.98,WSW,250,0.0,-999.0,51,-99.99,,,0.00,weatherlink.com 1.10,2013-08-21 20:19:00,
2013-08-21 16:34:00,90.0,70.0,29.98,SSW,205,0.0,-999.0,52,-99.99,,,0.00,weatherlink.com 1.10,2013-08-21 20:34:00,
2013-08-21 16:49:00,89.6,71.0,29.97,WSW,245,2.0,-999.0,55,-99.99,,,0.00,weatherlink.com 1.10,2013-08-21 20:49:00,
2013-08-21 17:04:00,88.7,69.0,29.97,WSW,254,0.0,-999.0,52,-99.99,,,0.00,weatherlink.com 1.10,2013-08-21 21:04:00,
2013-08-21 17:19:00,87.7,69.0,29.96,WSW,242,0.0,-999.0,54,-99.99,,,0.00,weatherlink.com 1.10,2013-08-21 21:19:00,
2013-08-21 17:34:00,86.5,70.0,29.96,SSW,207,0.0,-999.0,58,-99.99,,,0.00,weatherlink.com 1.10,2013-08-21 21:34:00,
2013-08-21 17:49:00,85.5,70.0,29.96,SW,229,3.0,-999.0,60,-99.99,,,0.00,weatherlink.com 1.10,2013-08-21 21:49:00,
2013-08-21 18:04:00,84.5,70.0,29.96,SW,225,0.0,-999.0,61,-99.99,,,0.00,weatherlink.com 1.10,2013-08-21 22:04:00,
2013-08-21 18:19:00,83.5,70.0,29.96,SW,223,1.0,-999.0,64,-99.99,,,0.00,weatherlink.com 1.10,2013-08-21 22:19:00,
2013-08-21 18:34:00,82.1,73.0,29.96,SSW,194,0.0,-999.0,73,-99.99,,,0.00,weatherlink.com 1.10,2013-08-21 22:34:00,
2013-08-21 18:49:00,80.7,73.0,29.96,South,169,0.0,-999.0,76,-99.99,,,0.00,weatherlink.com 1.10,2013-08-21 22:49:00,
2013-08-21 19:04:00,78.7,71.0,29.96,South,169,0.0,-999.0,78,-99.99,,,0.00,weatherlink.com 1.10,2013-08-21 23:04:00,
2013-08-21 19:19:00,76.9,71.0,29.95,South,169,0.0,-999.0,81,-99.99,,,0.00,weatherlink.com 1.10,2013-08-21 23:19:00,
2013-08-21 19:34:00,75.6,70.0,29.95,South,169,0.0,-999.0,82,-99.99,,,0.00,weatherlink.com 1.10,2013-08-21 23:34:00,
2013-08-21 19:49:00,74.5,69.0,29.95,South,169,0.0,-999.0,84,-99.99,,,0.00,weatherlink.com 1.10,2013-08-21 23:49:00,
2013-08-21 20:04:00,73.4,69.0,29.95,South,169,0.0,-999.0,85,-99.99,,,0.00,weatherlink.com 1.10,2013-08-22 00:04:00,
2013-08-21 20:19:00,72.5,69.0,29.96,South,169,0.0,-999.0,88,-99.99,,,0.00,weatherlink.com 1.10,2013-08-22 00:19:00,
2013-08-21 20:34:00,71.7,68.0,29.96,South,169,0.0,-999.0,89,-99.99,,,0.00,weatherlink.com 1.10,2013-08-22 00:34:00,
2013-08-21 20:49:00,71.2,68.0,29.96,South,169,0.0,-999.0,90,-99.99,,,0.00,weatherlink.com 1.10,2013-08-22 00:49:00,
2013-08-21 21:04:00,71.0,68.0,29.96,South,169,0.0,-999.0,91,-99.99,,,0.00,weatherlink.com 1.10,2013-08-22 01:04:00,
2013-08-21 21:19:00,70.7,68.0,29.96,South,175,0.0,-999.0,91,-99.99,,,0.00,weatherlink.com 1.10,2013-08-22 01:19:00,
2013-08-21 21:34:00,70.7,68.0,29.96,SSW,206,0.0,-999.0,90,-99.99,,,0.00,weatherlink.com 1.10,2013-08-22 01:34:00,
2013-08-21 21:49:00,70.2,67.0,29.96,SSW,206,0.0,-999.0,90,-99.99,,,0.00,weatherlink.com 1.10,2013-08-22 01:49:00,
2013-08-21 22:04:00,69.7,67.0,29.96,SSW,206,0.0,-999.0,91,-99.99,,,0.00,weatherlink.com 1.10,2013-08-22 02:04:00,
2013-08-21 22:19:00,69.1,66.0,29.95,SSW,206,0.0,-999.0,91,-99.99,,,0.00,weatherlink.com 1.10,2013-08-22 02:19:00,
2013-08-21 22:34:00,68.4,66.0,29.95,SSW,206,0.0,-999.0,92,-99.99,,,0.00,weatherlink.com 1.10,2013-08-22 02:34:00,
2013-08-21 22:49:00,67.8,66.0,29.95,SSW,206,0.0,-999.0,93,-99.99,,,0.00,weatherlink.com 1.10,2013-08-22 02:49:00,
2013-08-21 23:04:00,67.3,66.0,29.95,SSW,206,0.0,-999.0,94,-99.99,,,0.00,weatherlink.com 1.10,2013-08-22 03:04:00,
2013-08-21 23:19:00,66.8,65.0,29.95,SSW,206,0.0,-999.0,94,-99.99,,,0.00,weatherlink.com 1.10,2013-08-22 03:19:00,
2013-08-21 23:34:00,66.3,65.0,29.94,SSW,213,0.0,-999.0,95,-99.99,,,0.00,weatherlink.com 1.10,2013-08-22 03:34:00,
2013-08-21 23:49:00,66.1,65.0,29.95,SSW,213,0.0,-999.0,95,-99.99,,,0.00,weatherlink.com 1.10,2013-08-22 03:49:00,